Weather History for Frederick, MD

Change the Weather History Date:

Monday, November 26, 2012

  Actual Average (KHGR) Record (KHGR)
Temperature  
Mean Temperature 39 °F -  
Max Temperature 55 °F 48 °F 63 °F (2011)
Min Temperature 23 °F 33 °F 19 °F (2005)
Degree Days  
Heating Degree Days 26    
Moisture  
Dew Point 28 °F    
Average Humidity 88    
Maximum Humidity 100    
Minimum Humidity 38    
Precipitation  
Precipitation 0.00 in - - ()
Sea Level Pressure  
Sea Level Pressure 30.15 in    
Wind  
Wind Speed 1 mph (WSW)    
Max Wind Speed 9 mph    
Max Gust Speed -    
Visibility 10 miles    
Events Snow    
Averages and records for this station are not official NWS values.
T = Trace of Precipitation, MM = Missing Value Source: NWS Daily Summary

Daily Weather History Graph

Daily Weather History Graph

Search for Another Location

Airport:

Trip Planner

Search our weather history database for the weather conditions in past years. The results will help you decide how hot, cold, wet, or windy it might be!

Date:

Astronomy

Nov. 26, 2012 Rise Set
Actual Time 7:05 AM EST 4:47 PM EST
Civil Twilight 6:36 AM EST 5:17 PM EST
Nautical Twilight 6:03 AM EST 5:50 PM EST
Astronomical Twilight 5:31 AM EST 6:22 PM EST
Moon 3:38 PM EST (11/26) 5:14 AM EST (11/26)
Length of Visible Light 10h 40m
Length of Day
9h 41m
Waxing Gibbous, 97% of the Moon is Illuminated
Nov 26
Waxing Gibbous
Nov 28
Full
Dec 6
Last Quarter
Dec 13
New
Dec 20
First Quarter

Hourly Weather History & Observations

Time (EST) Temp. Windchill Dew Point Humidity Pressure Visibility Wind Dir Wind Speed Gust Speed Precip Events Conditions
12:10 AM 23.0 °F 18.4 °F 23.0 °F 100% 30.02 in 10.0 mi SSE 3.5 mph - N/A Snow Light Snow
12:35 AM 24.8 °F 20.5 °F 24.8 °F 100% 30.03 in 10.0 mi South 3.5 mph - N/A Snow Light Snow
12:55 AM 24.8 °F - 24.8 °F 100% 30.03 in 10.0 mi Calm Calm - N/A Snow Light Snow
1:15 AM 23.0 °F - 23.0 °F 100% 30.04 in 10.0 mi Calm Calm - N/A Snow Light Snow
1:35 AM 23.0 °F - 23.0 °F 100% 30.04 in 10.0 mi Calm Calm - N/A Snow Light Snow
2:00 AM 23.0 °F - 23.0 °F 100% 30.05 in 10.0 mi Calm Calm - N/A Snow Light Snow
2:20 AM 23.0 °F - 23.0 °F 100% 30.06 in 10.0 mi Calm Calm - N/A Snow Light Snow
2:40 AM 23.0 °F - 23.0 °F 100% 30.07 in 10.0 mi Calm Calm - N/A   Clear
3:00 AM 23.0 °F - 23.0 °F 100% 30.07 in 10.0 mi Calm Calm - N/A Snow Light Snow
3:25 AM 23.0 °F - 23.0 °F 100% 30.07 in 7.0 mi Calm Calm - N/A Snow Light Snow
3:45 AM 23.0 °F - 23.0 °F 100% 30.07 in 10.0 mi Calm Calm - N/A Snow Light Snow
4:05 AM 24.8 °F - 24.8 °F 100% 30.08 in 7.0 mi Calm Calm - N/A Snow Light Snow
4:25 AM 24.8 °F - 24.8 °F 100% 30.07 in 10.0 mi Calm Calm - N/A Snow Light Snow
4:50 AM 26.6 °F - 26.6 °F 100% 30.09 in 10.0 mi Calm Calm - N/A Snow Light Snow
5:10 AM 24.8 °F - 24.8 °F 100% 30.09 in 10.0 mi Calm Calm - N/A Snow Light Snow
5:30 AM 24.8 °F - 24.8 °F 100% 30.10 in 10.0 mi Calm Calm - N/A Snow Light Snow
5:50 AM 24.8 °F - 24.8 °F 100% 30.11 in 7.0 mi Calm Calm - N/A Snow Light Snow
6:50 AM 23.0 °F - 23.0 °F 100% 30.13 in 10.0 mi Calm Calm - N/A   Clear
7:47 AM 24.8 °F - 24.8 °F 100% 30.16 in 10.0 mi Calm Calm - N/A   Clear
8:52 AM 35.6 °F - 32.0 °F 87% 30.19 in 7.0 mi Calm Calm - N/A   Clear
9:50 AM 46.4 °F - 37.4 °F 71% 30.20 in 10.0 mi Calm Calm - N/A   Clear
10:50 AM 51.8 °F - 32.0 °F 47% 30.20 in 10.0 mi WNW 9.2 mph - N/A   Clear
11:50 AM 53.6 °F - 32.0 °F 44% 30.20 in 10.0 mi WNW 9.2 mph - N/A   Clear
12:45 PM 53.6 °F - 32.0 °F 44% 30.19 in 10.0 mi West 8.1 mph - N/A   Clear
1:50 PM 55.4 °F - 32.0 °F 41% 30.18 in 10.0 mi Calm Calm - N/A   Clear
2:50 PM 55.4 °F - 30.2 °F 38% 30.18 in 10.0 mi Calm Calm - N/A   Clear
3:50 PM 53.6 °F - 32.0 °F 44% 30.18 in 10.0 mi Calm Calm - N/A   Clear
4:50 PM 46.4 °F - 30.2 °F 53% 30.18 in 10.0 mi Calm Calm - N/A   Clear
5:45 PM 37.4 °F - 30.2 °F 75% 30.20 in 10.0 mi Calm Calm - N/A   Clear
6:45 PM 33.8 °F - 28.4 °F 81% 30.21 in 10.0 mi Calm Calm - N/A   Clear
7:50 PM 30.2 °F - 30.2 °F 100% 30.22 in 10.0 mi Calm Calm - N/A   Clear
8:05 PM 30.2 °F - 30.2 °F 100% 30.22 in 10.0 mi Calm Calm - N/A   Clear
8:45 PM 30.2 °F - 28.4 °F 93% 30.23 in 10.0 mi Calm Calm - N/A   Clear
9:05 PM 30.2 °F - 30.2 °F 100% 30.24 in 10.0 mi Calm Calm - N/A Snow Light Snow
9:30 PM 30.2 °F - 30.2 °F 100% 30.24 in 10.0 mi Calm Calm - N/A   Scattered Clouds
9:50 PM 30.2 °F - 30.2 °F 100% 30.25 in 10.0 mi Calm Calm - N/A   Mostly Cloudy
10:10 PM 32.0 °F - 30.2 °F 93% 30.24 in 10.0 mi Calm Calm - N/A   Scattered Clouds
10:55 PM 32.0 °F - 32.0 °F 100% 30.25 in 10.0 mi Calm Calm - N/A   Overcast
11:15 PM 32.0 °F - 32.0 °F 100% 30.25 in 10.0 mi Calm Calm - N/A   Overcast
11:35 PM 33.8 °F - 32.0 °F 93% 30.25 in 10.0 mi Calm Calm - N/A   Overcast
11:55 PM 33.8 °F - 32.0 °F 93% 30.25 in 10.0 mi Calm Calm - N/A   Overcast